Weather History for Lulea-Kallax, Sweden

Change the Weather History Date:

Monday, January 21, 2013

  Actual Average Record
Temperature  
Mean Temperature 16 °F -  
Max Temperature 30 °F - - ()
Min Temperature 3 °F - - ()
Degree Days  
Heating Degree Days 48    
Moisture  
Dew Point 12 °F    
Average Humidity 78    
Maximum Humidity 92    
Minimum Humidity 62    
Precipitation  
Precipitation 0.00 in - - ()
Sea Level Pressure  
Sea Level Pressure 29.90 in    
Wind  
Wind Speed 6 mph ()    
Max Wind Speed 18 mph    
Max Gust Speed -    
Visibility 6.2 miles    
Events      
T = Trace of Precipitation, MM = Missing Value Source: Averaged Metar Reports

Daily Weather History Graph

Daily Weather History Graph

Search for Another Location

Airport:

Trip Planner

Search our weather history database for the weather conditions in past years. The results will help you decide how hot, cold, wet, or windy it might be!

Date:

Astronomy

Jan. 21, 2013 Rise Set
Actual Time 8:59 AM CET 2:27 PM CET
Civil Twilight 7:49 AM CET 3:37 PM CET
Nautical Twilight 6:43 AM CET 4:43 PM CET
Astronomical Twilight 5:42 AM CET 5:43 PM CET
Moon 9:49 AM CET (1/21) 4:11 AM CET (1/21)
Length of Visible Light 7h 47m
Length of Day
5h 28m
Waxing Gibbous, 73% of the Moon is Illuminated
Jan 21
Waxing Gibbous
Jan 27
Full
Feb 3
Last Quarter
Feb 10
New
Feb 17
First Quarter

Hourly Weather History & Observations

Time (CET) Temp. Windchill Dew Point Humidity Pressure Visibility Wind Dir Wind Speed Gust Speed Precip Events Conditions
12:00 AM 11 °F - 6 °F 74% 30.09 in 31 mi NW 4.5 mph - -  
12:20 AM 6.8 °F -3.5 °F 3.2 °F 85% 30.06 in 6.2 mi NW 5.8 mph - N/A   Partly Cloudy
12:50 AM 6.8 °F -2.0 °F 3.2 °F 85% 30.06 in 6.2 mi NW 4.6 mph - N/A   Partly Cloudy
1:00 AM 8 °F - 5 °F 83% 30.09 in 28 mi NW 4.5 mph - -  
1:20 AM 6.8 °F -3.5 °F 5.0 °F 92% 30.06 in 6.2 mi WNW 5.8 mph - N/A   Unknown
1:50 AM 5.0 °F -4.1 °F 3.2 °F 92% 30.06 in 6.2 mi NW 4.6 mph - N/A   Unknown
2:00 AM 6 °F - 4 °F 84% 30.08 in 28 mi NW 4.5 mph - -  
2:20 AM 5.0 °F - 3.2 °F 92% 30.06 in 6.2 mi NNW 2.3 mph - N/A   Unknown
2:50 AM 5.0 °F - 1.4 °F 85% 30.04 in 6.2 mi WNW 2.3 mph - N/A   Unknown
3:00 AM 3 °F - 1 °F 85% 30.06 in 28 mi Calm Calm - -  
3:20 AM 3.2 °F -4.2 °F 1.4 °F 92% 30.04 in 6.2 mi West 3.5 mph - N/A   Unknown
3:50 AM 5.0 °F -4.1 °F 3.2 °F 92% 30.04 in 6.2 mi WNW 4.6 mph - N/A   Unknown
4:20 AM 8.6 °F 0.1 °F 6.8 °F 92% 30.01 in 6.2 mi West 4.6 mph - N/A   Unknown
4:50 AM 10.4 °F 4.0 °F 6.8 °F 85% 30.01 in - WNW 3.5 mph - N/A   Clear
5:00 AM 9 °F - 4 °F 72% 30.02 in 31 mi NW 2.2 mph - -  
5:20 AM 8.6 °F 0.1 °F 5.0 °F 85% 30.01 in - WNW 4.6 mph - N/A   Clear
5:50 AM 8.6 °F 2.0 °F 5.0 °F 85% 29.98 in - West 3.5 mph - N/A   Clear
6:20 AM 10.4 °F 4.0 °F 6.8 °F 85% 29.98 in - West 3.5 mph - N/A   Clear
6:50 AM 12.2 °F 6.1 °F 8.6 °F 85% 29.98 in - NNW 3.5 mph - N/A   Clear
7:00 AM 12 °F - 8 °F 75% 29.99 in 47 mi NW 2.2 mph - -  
7:20 AM 12.2 °F - 8.6 °F 85% 29.98 in - West 2.3 mph - N/A   Clear
7:50 AM 10.4 °F - 6.8 °F 85% 29.95 in - Variable 1.2 mph - N/A   Clear
8:00 AM 11 °F - 7 °F 78% 29.97 in 47 mi WSW 2.2 mph - -   Mostly Cloudy
8:20 AM 10.4 °F 4.0 °F 6.8 °F 85% 29.95 in - WSW 3.5 mph - N/A   Clear
8:50 AM 12.2 °F - 8.6 °F 85% 29.92 in - West 2.3 mph - N/A   Clear
9:00 AM 14 °F - 10 °F 75% 29.95 in 47 mi West 4.5 mph - -   Mostly Cloudy
9:20 AM 15.8 °F 6.1 °F 10.4 °F 79% 29.92 in - West 6.9 mph - N/A   Clear
9:50 AM 15.8 °F 8.6 °F 10.4 °F 79% 29.92 in - WNW 4.6 mph - N/A   Clear
10:20 AM 17.6 °F 9.3 °F 10.4 °F 73% 29.92 in - WNW 5.8 mph - N/A   Clear
10:50 AM 17.6 °F 8.2 °F 10.4 °F 73% 29.92 in - WNW 6.9 mph - N/A   Clear
11:00 AM 18 °F - 11 °F 62% 29.92 in 44 mi WNW 6.7 mph - -   Mostly Cloudy
11:20 AM 17.6 °F 9.3 °F 10.4 °F 73% 29.89 in - WNW 5.8 mph - N/A   Clear
11:50 AM 19.4 °F 11.5 °F 10.4 °F 68% 29.89 in - WNW 5.8 mph - N/A   Clear
12:00 PM 19 °F - 11 °F 62% 29.90 in 47 mi WNW 6.7 mph - -   Mostly Cloudy
12:20 PM 19.4 °F 12.8 °F 12.2 °F 74% 29.89 in - NW 4.6 mph - N/A   Clear
12:50 PM 19.4 °F 12.8 °F 12.2 °F 74% 29.89 in - NW 4.6 mph - N/A   Clear
1:00 PM 19 °F - 13 °F 66% 29.89 in 47 mi NW 4.5 mph - -  
1:20 PM 19.4 °F 10.4 °F 14.0 °F 80% 29.86 in - WNW 6.9 mph - N/A   Clear
1:50 PM 19.4 °F 10.4 °F 14.0 °F 80% 29.86 in - WNW 6.9 mph - N/A   Clear
2:00 PM 20 °F - 14 °F 68% 29.88 in 47 mi WNW 6.7 mph - -   Mostly Cloudy
2:20 PM 21.2 °F 12.6 °F 14.0 °F 74% 29.86 in - WNW 6.9 mph - N/A   Clear
2:50 PM 19.4 °F 10.4 °F 14.0 °F 80% 29.83 in - NW 6.9 mph - N/A   Clear
3:00 PM 18 °F - 13 °F 71% 29.86 in 47 mi NNW 4.5 mph - -   Partly Cloudy
3:20 PM 19.4 °F 10.4 °F 14.0 °F 80% 29.83 in - NW 6.9 mph - N/A   Clear
3:50 PM 19.4 °F 10.4 °F 14.0 °F 80% 29.83 in - NNW 6.9 mph - N/A   Clear
4:20 PM 23.0 °F 13.1 °F 17.6 °F 80% 29.83 in - NNW 9.2 mph - N/A   Clear
4:50 PM 23.0 °F 12.4 °F 17.6 °F 80% 29.83 in - NNW 10.4 mph - N/A   Clear
5:00 PM 21 °F - 16 °F 71% 29.84 in 47 mi NNW 6.7 mph - -   Scattered Clouds
5:20 PM 26.6 °F 16.2 °F 19.4 °F 74% 29.80 in - NW 11.5 mph - N/A   Clear
5:50 PM 24.8 °F 13.4 °F 19.4 °F 80% 29.80 in - NW 12.7 mph - N/A   Clear
6:00 PM 26 °F - 19 °F 67% 29.82 in 47 mi NW 13.4 mph - -   Mostly Cloudy
6:20 PM 26.6 °F 15.2 °F 19.4 °F 74% 29.80 in - WNW 13.8 mph - N/A   Clear
6:50 PM 26.6 °F 15.2 °F 19.4 °F 74% 29.80 in - WNW 13.8 mph - N/A   Clear
7:00 PM 27 °F - 20 °F 67% 29.80 in 47 mi WNW 13.4 mph - -  
7:20 PM 28.4 °F 18.5 °F 21.2 °F 74% 29.77 in - WNW 11.5 mph - N/A   Clear
7:50 PM 26.6 °F 15.2 °F 21.2 °F 80% 29.77 in - WNW 13.8 mph - N/A   Clear
8:00 PM 27 °F - 21 °F 69% 29.78 in 47 mi WNW 13.4 mph - -   Partly Cloudy
8:20 PM 28.4 °F 17.0 °F 21.2 °F 74% 29.77 in - WNW 15.0 mph - N/A   Clear
8:50 PM 28.4 °F 18.0 °F 21.2 °F 74% 29.77 in - WNW 12.7 mph - N/A   Clear
9:00 PM 28 °F - 22 °F 68% 29.78 in 47 mi WNW 13.4 mph - -   Mostly Cloudy
9:20 PM 28.4 °F 17.0 °F 21.2 °F 74% 29.77 in - WNW 15.0 mph - N/A   Clear
9:50 PM 28.4 °F 18.0 °F 23.0 °F 80% 29.77 in - WNW 12.7 mph - N/A   Clear
10:20 PM 30.2 °F 20.8 °F 23.0 °F 75% 29.77 in - WNW 11.5 mph - N/A   Clear
10:50 PM 30.2 °F 19.3 °F 23.0 °F 75% 29.74 in - WNW 15.0 mph - N/A   Clear
11:00 PM 29 °F - 23 °F 69% 29.77 in 31 mi WNW 17.9 mph - -  
11:20 PM 30.2 °F 18.5 °F 23.0 °F 75% 29.74 in - WNW 17.3 mph - N/A   Clear
11:50 PM 30.2 °F 18.5 °F 23.0 °F 75% 29.74 in - WNW 17.3 mph - N/A   Clear